Location: Newark
(48.1500°N, 2.9667°W)
Time: 21:53:39
(UTC+00:00)

Transit 2A - Pass Details

Date: 28 January 2020
Orbit: 600 x 959 km, 66.7° (Epoch: 19 February)

Event Time Altitude Azimuth Distance (km) Brightness Sun altitude
Rises 03:05:34 0° 328° (NNW) 2,948 - -45.9°
Reaches altitude 10° 03:07:54 10° 337° (NNW) 2,075 - -45.6°
Maximum altitude 03:12:19 40° 47° (NE) 1,030 - -44.9°
Drops below altitude 10° 03:17:07 10° 117° (ESE) 2,262 - -44.2°
Exits shadow 03:19:37 - 124° (SE) 3,196 9.5 -43.8°
Sets 03:19:46 0° 124° (SE) 3,248 9.6 -43.8°
